| time (UTC) | temp F | wind direction | speed MPH | gust MPH | rain 1hr in | rain 24hr in | rain mn in | humidity % | barometer mb |
| 20260904051004 | 76 | 270 | 2.0 | 3.0 | 0.00 | 0.00 | 0.00 | 78 | 1019.6 |
| 20260904050005 | 76 | 270 | 1.0 | 3.0 | 0.00 | 0.00 | 0.00 | 78 | 1019.7 |
| 20260904045010 | 76 | 272 | 1.0 | 2.0 | 0.00 | 0.00 | 0.00 | 79 | 1019.6 |
| 20260904044004 | 76 | 274 | 2.0 | 3.0 | 0.00 | 0.00 | 0.00 | 78 | 1019.6 |
| 20260904043004 | 76 | 275 | 1.0 | 2.0 | 0.00 | 0.00 | 0.00 | 78 | 1019.7 |
| 20260904041004 | 76 | 303 | 2.0 | 3.0 | 0.00 | 0.00 | 0.00 | 79 | 1019.7 |
| 20260904035004 | 76 | 27 | 0.0 | 1.0 | 0.00 | 0.00 | 0.00 | 82 | 1019.7 |
| 20260904034005 | 76 | 294 | 1.0 | 2.0 | 0.00 | 0.00 | 0.00 | 81 | 1019.7 |
| 20260904033005 | 76 | 263 | 1.0 | 3.0 | 0.00 | 0.00 | 0.00 | 81 | 1019.8 |
| 20260904032004 | 76 | 266 | 1.0 | 3.0 | 0.00 | 0.00 | 0.00 | 83 | 1019.7 |
| 20260904031005 | 76 | 273 | 2.0 | 3.0 | 0.00 | 0.00 | 0.00 | 85 | 1019.9 |
| 20260904024006 | 76 | 231 | 2.0 | 4.0 | 0.00 | 0.00 | 0.00 | 87 | 1019.9 |
| 20260904021004 | 77 | 209 | 1.0 | 2.0 | 0.00 | 0.00 | 0.00 | 84 | 1020.1 |
| 20260904020005 | 77 | 309 | 2.0 | 4.0 | 0.00 | 0.00 | 0.00 | 85 | 1020.2 |
| 20260904015004 | 77 | 289 | 2.0 | 4.0 | 0.00 | 0.00 | 0.00 | 85 | 1020.2 |
| 20260904014005 | 77 | 273 | 3.0 | 4.0 | 0.00 | 0.00 | 0.00 | 86 | 1020.2 |
| 20260904012006 | 77 | 258 | 4.0 | 6.0 | 0.00 | 0.00 | 0.00 | 86 | 1020.3 |
| 20260904011004 | 77 | 258 | 3.0 | 4.0 | 0.00 | 0.00 | 0.00 | 86 | 1020.5 |
| 20260904005004 | 78 | 251 | 2.0 | 4.0 | 0.00 | 0.00 | 0.00 | 86 | 1020.5 |
| 20260904004005 | 77 | 230 | 2.0 | 4.0 | 0.00 | 0.00 | 0.00 | 85 | 1020.6 |
| 20260904003025 | 78 | 255 | 3.0 | 5.0 | 0.00 | 0.00 | 0.00 | 84 | 1020.7 |
| 20260904002004 | 78 | 263 | 3.0 | 5.0 | 0.00 | 0.00 | 0.00 | 84 | 1020.7 |
| 20260904001004 | 78 | 259 | 3.0 | 5.0 | 0.00 | 0.00 | 0.00 | 84 | 1020.7 |
| 20260904000006 | 79 | 263 | 3.0 | 5.0 | 0.00 | 0.00 | 0.00 | 84 | 1020.8 |
| 20260903235004 | 79 | 265 | 4.0 | 5.0 | 0.00 | 0.00 | 0.00 | 83 | 1020.9 |
| 20260903233004 | 79 | 264 | 5.0 | 7.0 | 0.00 | 0.00 | 0.00 | 83 | 1020.9 |
| 20260903232004 | 79 | 267 | 5.0 | 7.0 | 0.00 | 0.00 | 0.00 | 83 | 1021.0 |
| 20260903231004 | 80 | 260 | 5.0 | 7.0 | 0.00 | 0.00 | 0.00 | 84 | 1021.0 |
| 20260903230005 | 80 | 263 | 4.0 | 6.0 | 0.00 | 0.00 | 0.00 | 84 | 1021.0 |
| 20260903225005 | 80 | 265 | 4.0 | 6.0 | 0.00 | 0.00 | 0.00 | 84 | 1021.1 |
| 20260903223004 | 81 | 256 | 2.0 | 4.0 | 0.00 | 0.00 | 0.00 | 82 | 1021.1 |
| 20260903221004 | 81 | 293 | 2.0 | 3.0 | 0.00 | 0.00 | 0.00 | 82 | 1021.3 |
| 20260903220005 | 81 | 337 | 2.0 | 4.0 | 0.00 | 0.00 | 0.00 | 82 | 1021.3 |
| 20260903213005 | 82 | 342 | 2.0 | 3.0 | 0.00 | 0.00 | 0.00 | 81 | 1021.5 |
| 20260903212004 | 82 | 329 | 2.0 | 3.0 | 0.00 | 0.00 | 0.00 | 81 | 1021.6 |
| 20260903211004 | 82 | 345 | 3.0 | 5.0 | 0.00 | 0.00 | 0.00 | 81 | 1021.6 |
| 20260903210008 | 82 | 342 | 3.0 | 5.0 | 0.00 | 0.00 | 0.00 | 81 | 1021.6 |
| 20260903205009 | 82 | 12 | 4.0 | 5.0 | 0.00 | 0.00 | 0.00 | 80 | 1021.6 |
| 20260903204010 | 82 | 12 | 4.0 | 6.0 | 0.00 | 0.00 | 0.00 | 79 | 1021.5 |
| 20260903203012 | 82 | 30 | 4.0 | 6.0 | 0.00 | 0.00 | 0.00 | 79 | 1021.3 |
| 20260903201007 | 82 | 44 | 4.0 | 6.0 | 0.00 | 0.00 | 0.00 | 79 | 1021.2 |
| 20260903200006 | 82 | 48 | 5.0 | 8.0 | 0.00 | 0.00 | 0.00 | 80 | 1021.2 |
| 20260903195004 | 82 | 39 | 3.0 | 6.0 | 0.00 | 0.00 | 0.00 | 80 | 1021.0 |
| 20260903193004 | 83 | 55 | 3.0 | 5.0 | 0.00 | 0.00 | 0.00 | 77 | 1020.8 |
| 20260903192004 | 83 | 57 | 4.0 | 5.0 | 0.00 | 0.00 | 0.00 | 75 | 1020.6 |
| 20260903191006 | 83 | 72 | 3.0 | 5.0 | 0.00 | 0.00 | 0.00 | 74 | 1020.4 |
| 20260903190005 | 82 | 86 | 3.0 | 5.0 | 0.00 | 0.00 | 0.00 | 71 | 1020.2 |
| 20260903185004 | 83 | 109 | 3.0 | 5.0 | 0.00 | 0.00 | 0.00 | 70 | 1020.1 |
| 20260903184005 | 83 | 110 | 4.0 | 6.0 | 0.00 | 0.00 | 0.00 | 69 | 1020.0 |
| 20260903182003 | 83 | 99 | 5.0 | 7.0 | 0.00 | 0.00 | 0.00 | 70 | 1020.0 |
| 20260903181025 | 83 | 96 | 5.0 | 8.0 | 0.00 | 0.00 | 0.00 | 70 | 1019.9 |
| 20260903175003 | 85 | 78 | 5.0 | 8.0 | 0.00 | 0.00 | 0.00 | 67 | 1019.9 |
| 20260903174004 | 85 | 80 | 5.0 | 9.0 | 0.00 | 0.00 | 0.00 | 66 | 1019.8 |
| 20260903173005 | 86 | 82 | 5.0 | 9.0 | 0.00 | 0.00 | 0.00 | 66 | 1019.8 |
| 20260903172006 | 85 | 97 | 6.0 | 11.0 | 0.00 | 0.00 | 0.00 | 64 | 1019.8 |
| 20260903171004 | 86 | 90 | 6.0 | 10.0 | 0.00 | 0.00 | 0.00 | 64 | 1019.7 |
| 20260903170005 | 86 | 98 | 8.0 | 12.0 | 0.00 | 0.00 | 0.00 | 61 | 1019.7 |
| 20260903165003 | 87 | 91 | 8.0 | 12.0 | 0.00 | 0.00 | 0.00 | 57 | 1019.8 |
| 20260903164004 | 87 | 96 | 8.0 | 13.0 | 0.00 | 0.00 | 0.00 | 57 | 1019.8 |
| 20260903163006 | 89 | 82 | 7.0 | 12.0 | 0.00 | 0.00 | 0.00 | 56 | 1019.7 |
| 20260903162004 | 88 | 96 | 7.0 | 12.0 | 0.00 | 0.00 | 0.00 | 58 | 1019.7 |
| 20260903161004 | 87 | 110 | 7.0 | 12.0 | 0.00 | 0.00 | 0.00 | 56 | 1019.8 |
| 20260903160005 | 87 | 118 | 7.0 | 12.0 | 0.00 | 0.00 | 0.00 | 61 | 1019.8 |
| 20260903155004 | 88 | 109 | 7.0 | 11.0 | 0.00 | 0.00 | 0.00 | 58 | 1019.9 |
| 20260903154004 | 88 | 117 | 8.0 | 12.0 | 0.00 | 0.00 | 0.00 | 60 | 1019.8 |
| 20260903153005 | 88 | 107 | 8.0 | 12.0 | 0.00 | 0.00 | 0.00 | 57 | 1019.8 |
| 20260903152004 | 89 | 109 | 8.0 | 12.0 | 0.00 | 0.00 | 0.00 | 57 | 1020.0 |
| 20260903151004 | 90 | 98 | 7.0 | 12.0 | 0.00 | 0.00 | 0.00 | 56 | 1019.9 |
| 20260903150005 | 89 | 114 | 7.0 | 11.0 | 0.00 | 0.00 | 0.00 | 54 | 1020.0 |
| 20260903145003 | 89 | 125 | 8.0 | 13.0 | 0.00 | 0.00 | 0.00 | 54 | 1020.1 |
| 20260903144005 | 89 | 103 | 9.0 | 13.0 | 0.00 | 0.00 | 0.00 | 53 | 1020.2 |
| 20260903143004 | 90 | 106 | 7.0 | 12.0 | 0.00 | 0.00 | 0.00 | 51 | 1020.2 |
| 20260903142007 | 90 | 120 | 9.0 | 13.0 | 0.00 | 0.00 | 0.00 | 49 | 1020.3 |
| 20260903140006 | 92 | 95 | 8.0 | 13.0 | 0.00 | 0.00 | 0.00 | 47 | 1020.4 |
| 20260903135006 | 92 | 92 | 8.0 | 12.0 | 0.00 | 0.00 | 0.00 | 46 | 1020.4 |
| 20260903134028 | 91 | 118 | 8.0 | 11.0 | 0.00 | 0.00 | 0.00 | 44 | 1020.5 |
| 20260903133004 | 91 | 109 | 8.0 | 13.0 | 0.00 | 0.00 | 0.00 | 46 | 1020.6 |
| 20260903132005 | 91 | 111 | 7.0 | 12.0 | 0.00 | 0.00 | 0.00 | 46 | 1020.7 |
| 20260903131004 | 92 | 98 | 7.0 | 12.0 | 0.00 | 0.00 | 0.00 | 45 | 1020.8 |
| 20260903130007 | 92 | 102 | 6.0 | 10.0 | 0.00 | 0.00 | 0.00 | 44 | 1020.8 |
| 20260903125004 | 91 | 104 | 7.0 | 10.0 | 0.00 | 0.00 | 0.00 | 43 | 1020.9 |
| 20260903123004 | 90 | 114 | 6.0 | 10.0 | 0.00 | 0.00 | 0.00 | 46 | 1021.1 |
| 20260903122004 | 90 | 124 | 6.0 | 10.0 | 0.00 | 0.00 | 0.00 | 48 | 1021.1 |
| 20260903121004 | 89 | 113 | 6.0 | 10.0 | 0.00 | 0.00 | 0.00 | 54 | 1021.2 |
| 20260903120005 | 89 | 135 | 6.0 | 10.0 | 0.00 | 0.00 | 0.00 | 57 | 1021.2 |
| 20260903115004 | 89 | 126 | 6.0 | 10.0 | 0.00 | 0.00 | 0.00 | 57 | 1021.3 |
| 20260903114004 | 90 | 110 | 7.0 | 11.0 | 0.00 | 0.00 | 0.00 | 58 | 1021.3 |
| 20260903113004 | 88 | 116 | 6.0 | 10.0 | 0.00 | 0.00 | 0.00 | 61 | 1021.5 |
| 20260903112004 | 88 | 114 | 6.0 | 11.0 | 0.00 | 0.00 | 0.00 | 61 | 1021.5 |
| 20260903111004 | 88 | 134 | 5.0 | 9.0 | 0.00 | 0.00 | 0.00 | 61 | 1021.6 |
| 20260903110005 | 87 | 136 | 7.0 | 12.0 | 0.00 | 0.00 | 0.00 | 64 | 1021.8 |
| 20260903105004 | 87 | 104 | 6.0 | 9.0 | 0.00 | 0.00 | 0.00 | 64 | 1021.9 |
| 20260903104005 | 87 | 159 | 6.0 | 10.0 | 0.00 | 0.00 | 0.00 | 64 | 1022.0 |
| 20260903103004 | 87 | 122 | 6.0 | 11.0 | 0.00 | 0.00 | 0.00 | 64 | 1022.1 |
| 20260903100004 | 87 | 150 | 6.0 | 9.0 | 0.00 | 0.00 | 0.00 | 64 | 1022.1 |
| 20260903094004 | 87 | 161 | 4.0 | 7.0 | 0.00 | 0.00 | 0.00 | 63 | 1022.1 |
| 20260903092005 | 86 | 251 | 3.0 | 4.0 | 0.00 | 0.00 | 0.00 | 64 | 1022.1 |
| 20260903091004 | 85 | 214 | 3.0 | 5.0 | 0.00 | 0.00 | 0.00 | 66 | 1022.1 |
| 20260903090005 | 87 | 248 | 3.0 | 5.0 | 0.00 | 0.00 | 0.00 | 64 | 1022.1 |
| 20260903085004 | 85 | 232 | 3.0 | 5.0 | 0.00 | 0.00 | 0.00 | 66 | 1022.0 |
| 20260903084004 | 85 | 274 | 4.0 | 5.0 | 0.00 | 0.00 | 0.00 | 66 | 1021.9 |
| 20260903082004 | 87 | 7 | 2.0 | 4.0 | 0.00 | 0.00 | 0.00 | 65 | 1021.9 |
| 20260903081005 | 85 | 292 | 2.0 | 4.0 | 0.00 | 0.00 | 0.00 | 68 | 1021.9 |
| 20260903080006 | 83 | 296 | 2.0 | 4.0 | 0.00 | 0.00 | 0.00 | 71 | 1021.9 |
| 20260903074005 | 83 | 298 | 2.0 | 3.0 | 0.00 | 0.00 | 0.00 | 72 | 1021.9 |
| 20260903072004 | 80 | 303 | 3.0 | 4.0 | 0.00 | 0.00 | 0.00 | 77 | 1021.9 |
| 20260903071007 | 79 | 297 | 3.0 | 5.0 | 0.00 | 0.00 | 0.00 | 78 | 1021.8 |
| 20260903070004 | 78 | 307 | 5.0 | 7.0 | 0.00 | 0.00 | 0.00 | 80 | 1021.8 |
| 20260903065003 | 78 | 297 | 4.0 | 7.0 | 0.00 | 0.00 | 0.00 | 81 | 1021.8 |
| 20260903063008 | 77 | 269 | 3.0 | 4.0 | 0.00 | 0.00 | 0.00 | 84 | 1021.6 |
| 20260903062004 | 77 | 271 | 2.0 | 4.0 | 0.00 | 0.00 | 0.00 | 86 | 1021.5 |
| 20260903061005 | 76 | 270 | 2.0 | 3.0 | 0.00 | 0.00 | 0.00 | 86 | 1021.4 |
| 20260903060006 | 77 | 325 | 2.0 | 4.0 | 0.00 | 0.00 | 0.00 | 87 | 1021.2 |
| 20260903055004 | 76 | 320 | 2.0 | 4.0 | 0.00 | 0.00 | 0.00 | 87 | 1021.0 |
| 20260903054005 | 76 | 331 | 1.0 | 3.0 | 0.00 | 0.00 | 0.00 | 87 | 1020.9 |
| 20260903053006 | 76 | 329 | 2.0 | 4.0 | 0.00 | 0.00 | 0.00 | 88 | 1020.9 |
| 20260903052004 | 76 | 322 | 2.0 | 4.0 | 0.00 | 0.00 | 0.00 | 87 | 1020.8 |